Weather History for KNBT - August, 2013

Change the Weather History Date:

Thursday, August 29, 2013

  Actual Average (KMRH) Record (KMRH)
Temperature  
Mean Temperature 78 °F -  
Max Temperature 86 °F 86 °F 93 °F (1954)
Min Temperature 73 °F 70 °F 58 °F (1969)
Cooling Degree Days 14    
Growing Degree Days 28 (Base 50)    
Moisture  
Dew Point 74 °F    
Average Humidity 87    
Maximum Humidity 97    
Minimum Humidity 72    
Precipitation  
Precipitation 0.02 in - - ()
Sea Level Pressure  
Sea Level Pressure 29.90 in    
Wind  
Wind Speed 11 mph (NNW)    
Max Wind Speed 18 mph    
Max Gust Speed 25 mph    
Visibility 7 miles    
Events      
Averages and records for this station are not official NWS values.
T = Trace of Precipitation, MM = Missing Value Source: NWS Daily Summary

Daily Weather History Graph

Daily Weather History Graph

Search for Another Location

Airport or City:

Trip Planner

Search our weather history database for the weather conditions in past years. The results will help you decide how hot, cold, wet, or windy it might be!

Date:

Astronomy

Aug. 29, 2013 Rise Set
Actual Time 6:36 AM EDT 7:36 PM EDT
Civil Twilight 6:10 AM EDT 8:02 PM EDT
Nautical Twilight 5:39 AM EDT 8:32 PM EDT
Astronomical Twilight 5:07 AM EDT 9:04 PM EDT
Moon 12:33 AM EDT (8/29) 2:56 PM EDT (8/29)
Length of Visible Light 13h 51m
Length of Day
12h 59m
Last Quarter, 38% of the Moon is Illuminated
Aug 29
Last Quarter
Sep 5
New
Sep 12
First Quarter
Sep 19
Full
Sep 26
Last Quarter

Hourly Weather History & Observations

Time (EDT) Temp. Heat Index Dew Point Humidity Pressure Visibility Wind Dir Wind Speed Gust Speed Precip Events Conditions
12:56 AM 80.1 °F 85.4 °F 75.9 °F 87% 29.89 in 7.0 mi SSW 9.2 mph - N/A   Mostly Cloudy
1:56 AM 79.0 °F - 75.0 °F 88% 29.87 in 7.0 mi SSW 8.1 mph - 0.01 in   Overcast
2:56 AM 79.0 °F - 75.0 °F 88% 29.86 in 7.0 mi SW 9.2 mph - N/A   Overcast
3:56 AM 77.0 °F - 75.0 °F 94% 29.86 in 7.0 mi WSW 6.9 mph - 0.00 in   Overcast
4:56 AM 75.9 °F - 75.0 °F 97% 29.85 in 7.0 mi SSW 4.6 mph - 0.01 in   Overcast
5:56 AM 75.0 °F - 73.9 °F 96% 29.84 in 7.0 mi SW 9.2 mph - N/A   Partly Cloudy
6:56 AM 75.0 °F - 73.0 °F 94% 29.85 in 6.0 mi WSW 12.7 mph - N/A   Mostly Cloudy
7:56 AM 75.9 °F - 73.9 °F 94% 29.86 in 6.0 mi West 12.7 mph - N/A   Partly Cloudy
8:56 AM 77.0 °F - 75.0 °F 94% 29.88 in 5.0 mi West 12.7 mph 19.6 mph N/A   Scattered Clouds
9:43 AM 77.0 °F - 75.2 °F 94% 29.87 in 5.0 mi WNW 10.4 mph - N/A   Mostly Cloudy
9:54 AM 77.0 °F - 75.2 °F 94% 29.87 in 5.0 mi WNW 12.7 mph - N/A   Mostly Cloudy
9:56 AM 77.0 °F - 75.0 °F 94% 29.88 in 5.0 mi WNW 9.2 mph - N/A   Mostly Cloudy
10:42 AM 78.8 °F - 75.2 °F 89% 29.87 in 5.0 mi NNW 11.5 mph - N/A   Mostly Cloudy
10:56 AM 78.1 °F - 75.9 °F 93% 29.88 in 5.0 mi NNW 10.4 mph - N/A   Scattered Clouds
11:56 AM 78.1 °F - 75.0 °F 90% 29.89 in 5.0 mi NNW 10.4 mph - N/A   Scattered Clouds
12:56 PM 82.9 °F 90.8 °F 75.9 °F 79% 29.88 in 6.0 mi NNW 8.1 mph - N/A   Haze
1:56 PM 84.0 °F 91.9 °F 75.0 °F 74% 29.89 in 8.0 mi North 11.5 mph - N/A   Partly Cloudy
2:56 PM 84.9 °F 93.3 °F 75.0 °F 72% 29.88 in 7.0 mi North 15.0 mph - N/A   Mostly Cloudy
3:56 PM 82.0 °F 88.6 °F 75.0 °F 79% 29.90 in 8.0 mi ENE 15.0 mph 21.9 mph N/A   Mostly Cloudy
4:01 PM 80.6 °F 85.4 °F 73.4 °F 79% 29.89 in 8.0 mi ENE 15.0 mph 23.0 mph N/A   Mostly Cloudy
4:56 PM 77.0 °F - 73.9 °F 90% 29.91 in 8.0 mi ENE 16.1 mph 21.9 mph 0.00 in   Overcast
5:56 PM 77.0 °F - 73.0 °F 88% 29.92 in 9.0 mi NE 13.8 mph - N/A   Overcast
6:24 PM 78.8 °F - 71.6 °F 78% 29.91 in 10.0 mi NE 18.4 mph 25.3 mph N/A   Mostly Cloudy
6:56 PM 78.1 °F - 72.0 °F 81% 29.93 in 10.0 mi NE 15.0 mph 20.7 mph N/A   Mostly Cloudy
7:56 PM 75.0 °F - 72.0 °F 90% 29.94 in 10.0 mi NE 16.1 mph 23.0 mph N/A   Mostly Cloudy
8:56 PM 73.9 °F - 70.0 °F 87% 29.96 in 10.0 mi NE 13.8 mph 21.9 mph N/A   Clear
9:56 PM 77.0 °F - 71.1 °F 82% 29.97 in 10.0 mi NNE 16.1 mph 21.9 mph N/A   Partly Cloudy
10:56 PM 77.0 °F - 71.1 °F 82% 29.99 in 9.0 mi NNE 13.8 mph - N/A   Scattered Clouds
11:05 PM 77.0 °F - 71.6 °F 83% 29.98 in 9.0 mi NNE 12.7 mph - N/A   Mostly Cloudy
11:56 PM 77.0 °F - 71.1 °F 82% 30.00 in 10.0 mi NE 10.4 mph - N/A   Mostly Cloudy